SCP
0 0 0 -0 0 0 0 0 0 0 0 0 0 0 -0 0 0 0 0 0 0 -0 -0 -0 -0 -0 -0 -0 -0 -0 -0 -0 -0 0 0 0 -0 0 0 0 -0 -0 -0 -0 -0 -0 -0 -0 -0
0 0 0 0 0 0 0 0 0 0 0 0 0 0 0 0 0 0 0 0 0 0 0 -0 -0 -0 -0 -0 -0 -0 -0 -0 -0 -0 -0 -0 -0 -0 0 0 0 0 -0 -0 -0 -0 -0 -0 -0
0 0 0 0 0 0 0 0 0 0 0 0 0 0 0 0 0 0 0 0 0 0 0 0 -0 -0 -0 -0 -0 -0 -0 -0 -0 -0 0 -0 -0 -0 -0 -0 -0 -0 -0 -0 -0 -0 -0 -0 -0
0 0 0 0 0 0 0 0 0 0 0 0 0 0 0 0 0 0 0 -0 0 0 0 0 -0 -0 -0 0 -0 -0 -0 -0 -0 -0 -0 -0 -0 -0 0 0 -0 -0 -0 -0 -0 -0 -0 -0 -0
0 0 0 0 0 0 0 0 0 0 0 0 0 0 0 0 0 0 -0 -0 -0 0 0 0 0 0 -0 -0 -0 -0 -0 -0 -0 -0 -0 -0 -0 -0 -0 -0 0 0 0 0 0 -0 -0 0 0
0 0 0 0 0 0 0 0 0 0 0 0 0 0 0 0 0 0 0 -0 -0 -0 0 0 0 0 0 0 -0 -0 0 0 0 -0 -0 0 0 0 0 0 0 0 0 -0 0 0 0 0 0
0 0 0 0 0 0 0 0 0 0 0 0 0 0 0 0 0 0 0 0 0 0 0 0 0 0 0 0 0 0 0 0 0 0 0 0 0 0 0 0 0 0 0 0 0 0 0 0 0
0 0 0 0 0 0 0 0 0 0 0 0 0 0 0 0 0 0 0 0 0 0 0 0 0 0 0 0 0 0 0 0 0 0 0 0 0 0 0 0 0 0 0 0 0 0 0 0 0
0 0 0 0 0 0 0 0 0 0 0 0 0 0 0 0 0 0 0 0 0 0 0 0 0 0 0 0 0 0 0 0 0 0 0 0 0 0 0 0 0 0 0 0 0 0 0 0 0
0 0 0 0 0 0 0 0 0 0 0 0 0 0 0 0 0 0 0 0 0 0 0 0 0 0 0 0 0 0 0 0 0 0 0 0 0 0 0 0 0 0 0 0 0 0 0 0 0
0 0 0 0 0 0 0 0 0 0 0 0 0 0 0 0 0 0 0 0 0 0 0 0 0 0 0 0 0 0 0 0 0 0 0 0 0 0 0 0 0 0 0 0 0 0 0 0 0
0 0 0 0 0 0 0 0 0 0 0 0 0 0 0 0 0 0 0 0 0 0 0 0 0 0 0 0 0 0 0 0 0 0 0 0 0 0 0 0 0 0 0 0 0 0 0 0 0
0 0 0 0 0 0 0 0 0 0 0 0 0 0 0 0 0 0 0 0 0 0 0 0 0 0 0 0 0 0 0 0 0 0 0 0 0 0 0 0 0 0 0 0 0 0 0 0 0
0 0 0 0 0 0 0 0 0 0 0 0 0 0 0 0 0 0 0 0 0 0 0 0 0 0 0 0 0 0 0 0 0 0 0 0 0 0 0 0 0 0 0 0 0 0 0 0 0
0 0 0 0 0 0 0 0 0 0 0 0 0 0 0 0 0 0 0 0 0 0 0 0 0 0 0 0 0 0 0 0 0 0 0 0 0 0 0 0 0 0 0 0 0 0 0 0 0
0 0 0 0 0 0 0 0 0 0 0 0 0 0 0 0 0 0 0 0 0 0 0 0 0 0 0 0 0 0 0 0 0 0 0 0 0 0 0 0 0 0 0 0 0 0 0 0 0
0 0 0 0 0 0 0 0 0 0 0 0 0 0 0 0 0 0 0 0 0 0 0 0 0 0 0 0 0 0 0 0 0 0 0 0 0 0 0 0 0 0 0 0 0 0 0 0 0
0 0 0 0 0 0 0 0 0 0 0 0 0 -0 0 0 0 0 0 0 0 0 0 0 0 0 0 0 0 0 0 0 0 0 0 0 0 0 0 0 0 0 0 0 0 0 0 0 0
0 0 0 0 0 0 0 0 0 0 0 0 0 0 0 0 0 0 0 0 0 0 0 0 0 0 0 0 0 0 0 0 0 0 0 0 0 0 0 0 0 0 0 0 0 0 0 0 0
0 0 0 0 0 0 0 -0 0 0 0 0 0 0 0 0 0 0 0 0 0 0 0 0 0 0 0 0 0 0 0 0 0 0 0 0 0 0 0 0 0 0 0 0 0 0 0 0 0
0 0 0 0 0 0 0 -0 0 0 0 0 0 0 0 0 0 0 0 0 0 0 0 0 0 0 0 0 0 0 0 0 0 0 0 0 0 0 0 0 0 0 0 0 0 0 0 0 0
0 0 0 0 0 0 0 -0 0 0 0 0 0 0 0 0 0 0 0 0 0 0 0 0 0 0 0 0 0 0 0 0 0 0 0 0 0 0 0 0 0 0 0 0 0 0 0 0 0
0 0 0 0 0 0 0 0 0 0 -0 -0 0 0 0 0 0 0 0 0 0 0 0 0 0 0 0 0 0 0 0 0 0 0 0 0 0 0 0 0 0 0 0 0 0 0 0 0 0
0 0 0 0 0 0 0 0 -0 -0 0 0 0 0 0 0 0 0 -0 -0 -0 0 0 0 0 0 0 0 0 0 0 0 0 0 0 0 0 0 0 0 0 0 0 0 0 0 0 0 0
0 0 0 0 0 0 0 0 0 0 0 0 0 0 0 0 0 0 0 -0 0 0 0 0 0 0 0 0 0 0 0 0 0 0 0 0 0 0 0 0 0 0 0 0 0 0 0 0 0
0 0 0 0 0 0 0 0 0 0 0 0 0 0 0 0 0 0 0 0 0 0 0 0 0 0 0 0 0 0 0 0 0 0 0 0 0 0 0 0 0 0 0 0 0 0 0 0 0
0 0 0 0 0 0 0 0 0 0 0 0 0 0 0 0 0 0 0 0 0 -0 0 0 0 0 0 0 0 0 0 0 0 0 0 0 0 0 0 0 0 0 0 0 0 0 0 0 0
0 0 0 0 0 0 0 0 0 0 0 0 0 0 0 0 0 -0 -0 -0 -0 0 -0 -0 0 0 0 0 0 0 0 0 0 0 0 0 0 0 0 0 0 0 0 0 0 0 0 0 0
0 0 0 0 0 0 0 0 0 0 0 0 -0 -0 -0 0 -0 -0 -0 0 0 0 0 -0 -0 -0 0 0 0 0 0 0 0 0 0 0 0 0 0 0 0 0 0 0 0 0 0 0 0
0 0 0 0 0 0 0 0 0 0 0 0 0 0 0 0 0 0 0 0 0 0 0 0 0 -0 0 0 0 0 0 0 0 0 0 0 0 0 0 0 0 0 0 0 0 0 0 0 0
Wind_Speed_500mb
10 8 5 4 7 9 8 12 5 6 4 5 16 11 14 8 12 9 4 14 21 35 39 39 35 36 38 35 28 26 23 22 20 20 18 20 24 24 21 21 21 22 20 17 10 7 9 9 9
11 7 3 3 8 4 10 8 11 12 5 7 12 8 4 13 23 11 10 18 21 30 36 35 36 33 32 33 31 30 29 26 25 23 22 22 21 19 17 18 20 20 21 18 12 10 11 11 12
10 6 3 8 6 9 9 11 9 5 9 8 4 10 6 8 14 13 13 23 23 26 35 35 35 34 31 33 33 32 32 32 29 28 24 24 24 21 18 20 22 23 22 19 18 18 18 19 20
7 4 7 7 12 14 13 10 6 3 7 14 8 11 12 19 7 12 18 22 24 25 33 37 37 36 37 36 35 35 35 34 28 21 22 22 22 19 16 16 18 18 18 17 16 17 18 18 17
6 1 4 4 10 12 11 19 12 8 4 4 9 10 11 16 27 21 12 22 25 27 32 39 40 39 38 39 38 37 36 36 29 24 22 20 19 17 17 17 16 17 16 15 14 12 11 10 10
2 4 5 7 10 12 13 17 6 8 10 5 8 16 15 23 21 24 21 20 24 28 32 39 42 42 40 38 38 35 36 33 28 26 21 19 19 18 16 15 14 13 11 10 8 6 5 5 5
7 7 7 7 9 13 9 2 6 7 7 15 10 4 11 14 16 21 23 25 28 31 36 40 44 43 42 42 40 38 37 34 31 27 23 21 19 16 14 13 12 10 9 8 7 6 5 5 6
5 8 2 8 5 12 6 5 6 11 12 14 12 11 11 4 11 21 27 31 33 37 40 44 47 46 46 45 42 42 39 36 33 30 28 25 23 20 17 16 14 13 11 9 7 6 6 6 7
6 6 5 10 11 10 4 4 5 9 17 15 19 37 37 32 27 26 34 39 40 43 46 48 52 53 52 50 47 47 44 41 38 35 33 31 27 23 21 18 16 13 11 9 8 7 8 10 11
9 7 15 12 9 10 9 9 20 8 26 23 39 49 51 52 50 47 47 45 47 47 48 51 55 58 58 57 55 53 51 47 42 39 38 36 32 28 26 22 19 15 12 10 10 10 10 11 12
13 13 11 14 29 25 14 13 17 8 18 48 42 42 42 50 56 56 55 55 54 48 53 54 57 60 62 62 61 60 58 54 50 47 45 42 38 34 29 25 21 18 14 13 13 13 12 12 13
6 26 25 11 10 12 11 18 11 24 73 65 62 59 59 57 59 63 63 60 59 59 57 58 61 63 65 66 67 65 64 61 58 55 53 51 46 40 35 31 25 21 19 17 15 15 15 16 16
11 11 27 44 40 45 47 49 26 43 92 83 73 62 62 61 60 61 63 63 65 69 64 63 63 67 69 70 72 71 71 69 63 61 59 57 53 46 42 38 33 27 23 21 19 19 19 20 21
5 17 25 34 40 37 20 53 7 60 77 71 64 62 51 49 51 50 60 67 70 69 70 68 69 71 72 74 75 74 75 73 71 68 65 62 57 53 49 44 39 33 29 25 23 22 20 19 19
10 15 16 17 24 15 17 22 20 72 61 69 70 62 53 54 51 55 51 60 66 67 68 72 74 75 77 78 78 79 77 78 78 75 72 69 64 60 55 50 45 39 34 30 26 24 22 22 22
5 3 9 3 15 6 21 19 48 45 42 57 57 47 60 63 64 73 74 77 72 71 72 74 78 81 82 84 83 84 82 82 82 79 77 74 69 65 62 56 50 45 39 34 31 28 26 24 22
4 11 15 21 30 10 16 17 29 37 28 40 59 76 85 97 102 100 93 88 87 82 76 74 79 83 84 87 89 89 87 85 86 83 82 78 74 71 68 62 57 50 46 41 36 34 32 27 25
18 11 12 14 10 12 11 29 22 76 47 62 79 96 94 107 106 100 103 94 83 83 83 78 78 82 82 88 94 96 92 92 90 87 87 82 80 77 74 69 63 59 55 48 43 39 35 29 25
6 11 17 15 17 5 29 37 33 48 61 70 77 76 88 99 108 93 83 76 68 64 67 78 77 78 84 92 99 102 103 98 96 93 90 87 85 83 80 75 70 67 60 53 48 45 37 31 28
15 27 30 27 33 10 29 42 28 38 43 76 84 82 77 82 96 95 88 80 68 55 53 59 66 74 80 90 97 101 99 100 98 96 95 93 91 88 85 80 76 70 64 62 56 49 43 37 31
16 13 30 28 12 11 21 25 17 19 32 66 88 80 74 76 83 81 73 67 60 54 47 51 58 66 77 83 89 97 99 100 105 106 101 99 95 91 88 82 77 72 69 65 59 54 48 43 35
31 21 25 19 9 8 9 31 15 20 24 16 50 66 76 65 61 65 68 66 53 42 41 43 54 67 74 78 86 92 102 108 108 104 101 99 97 95 92 86 80 78 74 69 64 59 54 47 42
21 9 11 3 7 8 3 7 4 10 15 22 20 37 35 52 58 64 64 64 55 41 40 42 52 62 71 78 84 88 95 102 101 101 98 99 100 98 95 91 87 84 80 75 71 67 61 56 50
4 4 9 8 4 13 23 19 3 7 10 1 14 27 48 41 42 49 59 50 46 51 43 43 46 57 65 71 77 86 91 98 100 101 94 97 100 99 96 93 90 87 85 82 77 71 67 61 55
6 8 7 7 1 18 4 9 23 12 18 14 20 34 21 29 37 49 60 59 44 37 38 38 41 46 53 60 68 74 84 91 96 92 93 92 96 101 103 98 97 95 88 82 77 75 72 68 62
13 16 11 14 10 26 3 22 25 15 18 28 19 9 20 30 42 61 71 69 67 35 28 27 27 32 36 41 54 65 72 83 87 92 92 92 92 90 91 97 98 95 90 86 83 81 76 71 66
10 13 7 7 3 7 24 33 35 23 5 9 7 13 26 26 48 70 73 73 53 30 31 28 28 30 36 36 42 51 61 71 83 90 93 93 90 86 87 89 94 95 92 89 86 85 82 77 73
12 4 5 2 6 15 17 18 31 36 28 26 20 19 32 64 88 92 77 55 43 44 44 49 61 57 49 50 50 47 53 64 76 83 93 95 91 90 88 87 87 95 96 93 92 89 85 82 78
3 7 8 5 11 28 28 19 40 37 12 13 10 36 66 80 76 61 46 42 47 37 40 52 56 55 60 63 64 65 65 69 81 88 89 94 96 96 93 92 92 92 96 99 98 95 90 87 84
6 27 25 21 17 15 30 29 38 47 44 28 34 59 49 52 56 55 48 47 47 49 49 42 45 47 42 48 57 66 75 85 90 95 92 90 101 103 98 95 97 95 96 103 105 102 98 95 92
Wind_Direction_500mb
219 225 255 287 43 60 269 263 267 262 253 199 144 163 196 185 170 211 259 176 179 189 192 193 194 197 196 201 205 203 197 200 184 190 199 207 219 221 216 208 207 202 206 228 240 232 239 255 264
221 224 224 109 95 52 267 252 239 234 260 182 181 186 200 245 226 264 209 181 177 187 195 196 195 196 195 196 198 197 203 200 189 193 207 226 229 228 227 224 222 227 236 254 271 271 263 263 259
215 212 214 96 118 192 225 222 239 253 229 188 242 236 240 228 227 224 218 198 196 190 196 197 196 196 190 193 191 193 199 201 201 219 233 235 244 253 241 232 232 237 245 256 261 265 269 268 268
195 174 56 104 228 250 219 250 236 256 231 227 232 275 249 240 243 217 219 216 214 206 199 197 199 203 199 201 202 207 213 227 233 240 231 236 242 243 239 235 240 246 250 257 263 268 269 269 276
198 44 54 305 259 264 254 268 242 199 245 216 204 267 253 255 242 242 232 220 221 217 207 203 203 206 207 208 210 213 219 232 240 234 225 222 221 230 233 232 236 245 252 258 259 260 262 270 267
123 66 37 261 264 273 275 260 221 206 232 242 221 253 259 263 253 240 231 217 222 221 215 209 208 212 213 215 218 221 225 230 232 231 227 224 219 214 216 219 218 221 223 224 224 225 229 231 253
124 92 227 253 267 303 261 257 202 206 236 253 231 225 269 284 259 238 223 219 218 219 218 217 215 217 217 218 221 223 224 220 224 226 226 221 216 213 217 219 220 220 223 217 211 218 236 273 295
163 99 256 248 258 272 307 224 283 225 257 247 212 242 267 272 258 236 229 224 222 222 220 219 220 221 220 221 219 221 219 221 222 222 219 213 214 217 216 219 218 215 220 229 244 271 295 304 311
161 62 241 253 178 250 243 237 257 267 265 242 227 247 268 274 273 244 230 225 225 225 223 222 221 223 223 224 223 223 220 223 221 219 214 212 216 215 213 214 215 221 232 252 273 289 305 317 322
152 145 226 215 211 245 281 247 283 267 266 255 257 264 271 271 268 263 253 245 236 233 231 226 224 224 224 224 224 224 226 227 226 225 219 217 217 215 213 212 215 223 237 253 271 289 302 313 323
182 210 212 248 246 267 277 275 264 214 275 262 256 286 284 278 267 260 259 257 258 254 238 236 230 227 227 227 226 226 226 227 227 226 223 222 223 223 218 219 221 229 242 256 271 283 293 305 318
226 244 240 259 260 279 263 285 247 224 267 281 284 288 281 273 272 268 261 264 261 254 248 240 236 233 231 229 230 230 229 228 227 226 225 224 225 224 222 223 230 235 241 253 266 280 295 307 315
214 239 254 264 274 274 280 269 254 262 285 289 287 285 279 274 273 271 268 264 259 256 251 246 241 239 236 233 232 231 231 230 230 230 228 225 225 225 225 225 227 232 243 254 268 283 292 299 307
240 264 276 282 270 262 221 271 256 271 283 286 287 285 282 273 276 274 270 267 262 259 253 248 246 242 240 238 237 235 233 232 231 232 231 229 227 226 226 226 227 229 236 246 257 266 276 286 297
287 311 308 231 252 230 220 296 225 278 286 287 285 288 288 285 281 278 286 281 276 268 262 254 247 243 243 241 240 238 236 234 232 232 230 229 228 228 228 228 228 229 233 240 249 261 272 282 294
281 183 308 245 151 250 165 249 275 285 278 281 285 287 292 286 285 284 283 281 279 272 264 256 251 246 243 243 242 240 238 236 234 232 231 229 228 229 230 230 229 230 234 239 245 255 263 274 285
326 239 216 304 207 153 186 248 260 284 277 265 274 280 284 284 284 280 279 279 278 277 270 261 252 249 245 243 242 242 240 237 236 233 232 230 230 230 231 232 230 230 232 234 242 249 258 270 284
230 223 250 239 274 175 219 249 273 280 282 268 272 280 279 280 281 284 286 287 283 277 271 263 254 249 245 242 241 240 238 236 236 234 233 231 231 231 232 230 229 230 230 233 239 245 252 262 275
203 233 244 259 263 260 263 269 264 267 276 277 274 268 274 277 289 291 290 291 291 285 272 260 258 250 242 238 237 236 236 235 234 233 233 232 232 232 232 231 230 230 231 234 235 239 245 258 268
262 268 272 276 267 258 267 271 268 261 252 262 269 274 271 283 290 294 298 298 296 294 283 262 254 247 245 243 242 238 237 236 237 235 231 230 231 231 232 231 231 231 230 230 234 238 243 249 257
218 229 262 265 304 254 301 272 219 269 248 252 264 266 274 278 290 299 303 302 304 303 295 274 256 250 248 244 239 237 235 235 234 232 230 229 229 231 232 232 231 232 233 234 236 237 239 243 247
268 224 255 270 348 255 9 299 181 233 261 238 258 273 281 288 301 309 313 311 313 307 289 274 262 252 248 242 239 234 235 233 235 237 235 232 230 230 231 231 231 232 232 233 234 235 237 240 244
240 181 248 204 227 334 201 271 356 135 238 267 283 282 292 328 318 317 312 314 314 317 308 276 260 253 249 244 241 236 233 235 237 236 235 233 231 231 230 230 229 230 231 232 233 234 235 239 243
74 96 76 44 59 278 199 194 91 178 209 274 323 296 324 328 323 320 321 319 306 307 311 290 264 256 250 246 243 243 238 236 232 233 235 233 232 232 231 231 231 232 232 231 232 232 234 237 239
132 70 325 327 359 241 298 235 243 280 241 245 264 279 329 349 2 12 9 350 336 312 292 279 271 259 255 251 249 247 244 241 240 238 238 236 234 232 231 230 229 229 230 232 234 235 236 235 237
187 171 175 224 249 283 153 262 266 218 256 262 270 233 6 45 39 19 5 2 358 334 326 317 308 296 278 267 261 255 249 246 243 243 244 244 241 240 237 235 233 232 232 231 232 234 236 237 237
180 183 211 307 306 292 272 278 291 266 287 242 179 329 2 7 339 335 345 341 332 354 11 9 356 336 322 302 278 264 253 249 246 245 245 246 247 245 241 239 239 237 234 233 233 234 234 235 236
188 186 256 357 233 239 248 270 262 288 286 296 306 325 321 320 319 324 333 344 351 345 338 334 327 318 310 299 284 273 266 257 255 252 250 249 249 247 244 241 238 237 236 234 234 234 234 234 235
199 231 208 274 206 253 259 250 267 282 322 303 311 331 331 333 342 343 349 332 331 326 321 317 318 315 307 298 290 279 275 267 258 254 254 253 251 248 246 244 240 236 234 234 233 234 234 233 234
211 236 229 239 247 239 255 262 288 297 296 308 5 33 29 15 4 1 0 4 2 1 357 353 339 330 320 312 303 293 287 281 272 266 263 260 254 250 248 245 242 240 236 234 234 233 232 232 233
Wind_Speed_850mb
10 8 5 4 7 9 8 12 5 6 4 5 16 11 14 8 12 9 4 14 21 35 39 39 35 36 38 35 28 26 23 22 20 20 18 20 24 24 21 21 21 22 20 17 10 7 9 9 9
11 7 3 3 8 4 10 8 11 12 5 7 12 8 4 13 23 11 10 18 21 30 36 35 36 33 32 33 31 30 29 26 25 23 22 22 21 19 17 18 20 20 21 18 12 10 11 11 12
10 6 3 8 6 9 9 11 9 5 9 8 4 10 6 8 14 13 13 23 23 26 35 35 35 34 31 33 33 32 32 32 29 28 24 24 24 21 18 20 22 23 22 19 18 18 18 19 20
7 4 7 7 12 14 13 10 6 3 7 14 8 11 12 19 7 12 18 22 24 25 33 37 37 36 37 36 35 35 35 34 28 21 22 22 22 19 16 16 18 18 18 17 16 17 18 18 17
6 1 4 4 10 12 11 19 12 8 4 4 9 10 11 16 27 21 12 22 25 27 32 39 40 39 38 39 38 37 36 36 29 24 22 20 19 17 17 17 16 17 16 15 14 12 11 10 10
2 4 5 7 10 12 13 17 6 8 10 5 8 16 15 23 21 24 21 20 24 28 32 39 42 42 40 38 38 35 36 33 28 26 21 19 19 18 16 15 14 13 11 10 8 6 5 5 5
7 7 7 7 9 13 9 2 6 7 7 15 10 4 11 14 16 21 23 25 28 31 36 40 44 43 42 42 40 38 37 34 31 27 23 21 19 16 14 13 12 10 9 8 7 6 5 5 6
5 8 2 8 5 12 6 5 6 11 12 14 12 11 11 4 11 21 27 31 33 37 40 44 47 46 46 45 42 42 39 36 33 30 28 25 23 20 17 16 14 13 11 9 7 6 6 6 7
6 6 5 10 11 10 4 4 5 9 17 15 19 37 37 32 27 26 34 39 40 43 46 48 52 53 52 50 47 47 44 41 38 35 33 31 27 23 21 18 16 13 11 9 8 7 8 10 11
9 7 15 12 9 10 9 9 20 8 26 23 39 49 51 52 50 47 47 45 47 47 48 51 55 58 58 57 55 53 51 47 42 39 38 36 32 28 26 22 19 15 12 10 10 10 10 11 12
13 13 11 14 29 25 14 13 17 8 18 48 42 42 42 50 56 56 55 55 54 48 53 54 57 60 62 62 61 60 58 54 50 47 45 42 38 34 29 25 21 18 14 13 13 13 12 12 13
6 26 25 11 10 12 11 18 11 24 73 65 62 59 59 57 59 63 63 60 59 59 57 58 61 63 65 66 67 65 64 61 58 55 53 51 46 40 35 31 25 21 19 17 15 15 15 16 16
11 11 27 44 40 45 47 49 26 43 92 83 73 62 62 61 60 61 63 63 65 69 64 63 63 67 69 70 72 71 71 69 63 61 59 57 53 46 42 38 33 27 23 21 19 19 19 20 21
5 17 25 34 40 37 20 53 7 60 77 71 64 62 51 49 51 50 60 67 70 69 70 68 69 71 72 74 75 74 75 73 71 68 65 62 57 53 49 44 39 33 29 25 23 22 20 19 19
10 15 16 17 24 15 17 22 20 72 61 69 70 62 53 54 51 55 51 60 66 67 68 72 74 75 77 78 78 79 77 78 78 75 72 69 64 60 55 50 45 39 34 30 26 24 22 22 22
5 3 9 3 15 6 21 19 48 45 42 57 57 47 60 63 64 73 74 77 72 71 72 74 78 81 82 84 83 84 82 82 82 79 77 74 69 65 62 56 50 45 39 34 31 28 26 24 22
4 11 15 21 30 10 16 17 29 37 28 40 59 76 85 97 102 100 93 88 87 82 76 74 79 83 84 87 89 89 87 85 86 83 82 78 74 71 68 62 57 50 46 41 36 34 32 27 25
18 11 12 14 10 12 11 29 22 76 47 62 79 96 94 107 106 100 103 94 83 83 83 78 78 82 82 88 94 96 92 92 90 87 87 82 80 77 74 69 63 59 55 48 43 39 35 29 25
6 11 17 15 17 5 29 37 33 48 61 70 77 76 88 99 108 93 83 76 68 64 67 78 77 78 84 92 99 102 103 98 96 93 90 87 85 83 80 75 70 67 60 53 48 45 37 31 28
15 27 30 27 33 10 29 42 28 38 43 76 84 82 77 82 96 95 88 80 68 55 53 59 66 74 80 90 97 101 99 100 98 96 95 93 91 88 85 80 76 70 64 62 56 49 43 37 31
16 13 30 28 12 11 21 25 17 19 32 66 88 80 74 76 83 81 73 67 60 54 47 51 58 66 77 83 89 97 99 100 105 106 101 99 95 91 88 82 77 72 69 65 59 54 48 43 35
31 21 25 19 9 8 9 31 15 20 24 16 50 66 76 65 61 65 68 66 53 42 41 43 54 67 74 78 86 92 102 108 108 104 101 99 97 95 92 86 80 78 74 69 64 59 54 47 42
21 9 11 3 7 8 3 7 4 10 15 22 20 37 35 52 58 64 64 64 55 41 40 42 52 62 71 78 84 88 95 102 101 101 98 99 100 98 95 91 87 84 80 75 71 67 61 56 50
4 4 9 8 4 13 23 19 3 7 10 1 14 27 48 41 42 49 59 50 46 51 43 43 46 57 65 71 77 86 91 98 100 101 94 97 100 99 96 93 90 87 85 82 77 71 67 61 55
6 8 7 7 1 18 4 9 23 12 18 14 20 34 21 29 37 49 60 59 44 37 38 38 41 46 53 60 68 74 84 91 96 92 93 92 96 101 103 98 97 95 88 82 77 75 72 68 62
13 16 11 14 10 26 3 22 25 15 18 28 19 9 20 30 42 61 71 69 67 35 28 27 27 32 36 41 54 65 72 83 87 92 92 92 92 90 91 97 98 95 90 86 83 81 76 71 66
10 13 7 7 3 7 24 33 35 23 5 9 7 13 26 26 48 70 73 73 53 30 31 28 28 30 36 36 42 51 61 71 83 90 93 93 90 86 87 89 94 95 92 89 86 85 82 77 73
12 4 5 2 6 15 17 18 31 36 28 26 20 19 32 64 88 92 77 55 43 44 44 49 61 57 49 50 50 47 53 64 76 83 93 95 91 90 88 87 87 95 96 93 92 89 85 82 78
3 7 8 5 11 28 28 19 40 37 12 13 10 36 66 80 76 61 46 42 47 37 40 52 56 55 60 63 64 65 65 69 81 88 89 94 96 96 93 92 92 92 96 99 98 95 90 87 84
6 27 25 21 17 15 30 29 38 47 44 28 34 59 49 52 56 55 48 47 47 49 49 42 45 47 42 48 57 66 75 85 90 95 92 90 101 103 98 95 97 95 96 103 105 102 98 95 92
Wind_Direction_850mb
219 225 255 287 43 60 269 263 267 262 253 199 144 163 196 185 170 211 259 176 179 189 192 193 194 197 196 201 205 203 197 200 184 190 199 207 219 221 216 208 207 202 206 228 240 232 239 255 264
221 224 224 109 95 52 267 252 239 234 260 182 181 186 200 245 226 264 209 181 177 187 195 196 195 196 195 196 198 197 203 200 189 193 207 226 229 228 227 224 222 227 236 254 271 271 263 263 259
215 212 214 96 118 192 225 222 239 253 229 188 242 236 240 228 227 224 218 198 196 190 196 197 196 196 190 193 191 193 199 201 201 219 233 235 244 253 241 232 232 237 245 256 261 265 269 268 268
195 174 56 104 228 250 219 250 236 256 231 227 232 275 249 240 243 217 219 216 214 206 199 197 199 203 199 201 202 207 213 227 233 240 231 236 242 243 239 235 240 246 250 257 263 268 269 269 276
198 44 54 305 259 264 254 268 242 199 245 216 204 267 253 255 242 242 232 220 221 217 207 203 203 206 207 208 210 213 219 232 240 234 225 222 221 230 233 232 236 245 252 258 259 260 262 270 267
123 66 37 261 264 273 275 260 221 206 232 242 221 253 259 263 253 240 231 217 222 221 215 209 208 212 213 215 218 221 225 230 232 231 227 224 219 214 216 219 218 221 223 224 224 225 229 231 253
124 92 227 253 267 303 261 257 202 206 236 253 231 225 269 284 259 238 223 219 218 219 218 217 215 217 217 218 221 223 224 220 224 226 226 221 216 213 217 219 220 220 223 217 211 218 236 273 295
163 99 256 248 258 272 307 224 283 225 257 247 212 242 267 272 258 236 229 224 222 222 220 219 220 221 220 221 219 221 219 221 222 222 219 213 214 217 216 219 218 215 220 229 244 271 295 304 311
161 62 241 253 178 250 243 237 257 267 265 242 227 247 268 274 273 244 230 225 225 225 223 222 221 223 223 224 223 223 220 223 221 219 214 212 216 215 213 214 215 221 232 252 273 289 305 317 322
152 145 226 215 211 245 281 247 283 267 266 255 257 264 271 271 268 263 253 245 236 233 231 226 224 224 224 224 224 224 226 227 226 225 219 217 217 215 213 212 215 223 237 253 271 289 302 313 323
182 210 212 248 246 267 277 275 264 214 275 262 256 286 284 278 267 260 259 257 258 254 238 236 230 227 227 227 226 226 226 227 227 226 223 222 223 223 218 219 221 229 242 256 271 283 293 305 318
226 244 240 259 260 279 263 285 247 224 267 281 284 288 281 273 272 268 261 264 261 254 248 240 236 233 231 229 230 230 229 228 227 226 225 224 225 224 222 223 230 235 241 253 266 280 295 307 315
214 239 254 264 274 274 280 269 254 262 285 289 287 285 279 274 273 271 268 264 259 256 251 246 241 239 236 233 232 231 231 230 230 230 228 225 225 225 225 225 227 232 243 254 268 283 292 299 307
240 264 276 282 270 262 221 271 256 271 283 286 287 285 282 273 276 274 270 267 262 259 253 248 246 242 240 238 237 235 233 232 231 232 231 229 227 226 226 226 227 229 236 246 257 266 276 286 297
287 311 308 231 252 230 220 296 225 278 286 287 285 288 288 285 281 278 286 281 276 268 262 254 247 243 243 241 240 238 236 234 232 232 230 229 228 228 228 228 228 229 233 240 249 261 272 282 294
281 183 308 245 151 250 165 249 275 285 278 281 285 287 292 286 285 284 283 281 279 272 264 256 251 246 243 243 242 240 238 236 234 232 231 229 228 229 230 230 229 230 234 239 245 255 263 274 285
326 239 216 304 207 153 186 248 260 284 277 265 274 280 284 284 284 280 279 279 278 277 270 261 252 249 245 243 242 242 240 237 236 233 232 230 230 230 231 232 230 230 232 234 242 249 258 270 284
230 223 250 239 274 175 219 249 273 280 282 268 272 280 279 280 281 284 286 287 283 277 271 263 254 249 245 242 241 240 238 236 236 234 233 231 231 231 232 230 229 230 230 233 239 245 252 262 275
203 233 244 259 263 260 263 269 264 267 276 277 274 268 274 277 289 291 290 291 291 285 272 260 258 250 242 238 237 236 236 235 234 233 233 232 232 232 232 231 230 230 231 234 235 239 245 258 268
262 268 272 276 267 258 267 271 268 261 252 262 269 274 271 283 290 294 298 298 296 294 283 262 254 247 245 243 242 238 237 236 237 235 231 230 231 231 232 231 231 231 230 230 234 238 243 249 257
218 229 262 265 304 254 301 272 219 269 248 252 264 266 274 278 290 299 303 302 304 303 295 274 256 250 248 244 239 237 235 235 234 232 230 229 229 231 232 232 231 232 233 234 236 237 239 243 247
268 224 255 270 348 255 9 299 181 233 261 238 258 273 281 288 301 309 313 311 313 307 289 274 262 252 248 242 239 234 235 233 235 237 235 232 230 230 231 231 231 232 232 233 234 235 237 240 244
240 181 248 204 227 334 201 271 356 135 238 267 283 282 292 328 318 317 312 314 314 317 308 276 260 253 249 244 241 236 233 235 237 236 235 233 231 231 230 230 229 230 231 232 233 234 235 239 243
74 96 76 44 59 278 199 194 91 178 209 274 323 296 324 328 323 320 321 319 306 307 311 290 264 256 250 246 243 243 238 236 232 233 235 233 232 232 231 231 231 232 232 231 232 232 234 237 239
132 70 325 327 359 241 298 235 243 280 241 245 264 279 329 349 2 12 9 350 336 312 292 279 271 259 255 251 249 247 244 241 240 238 238 236 234 232 231 230 229 229 230 232 234 235 236 235 237
187 171 175 224 249 283 153 262 266 218 256 262 270 233 6 45 39 19 5 2 358 334 326 317 308 296 278 267 261 255 249 246 243 243 244 244 241 240 237 235 233 232 232 231 232 234 236 237 237
180 183 211 307 306 292 272 278 291 266 287 242 179 329 2 7 339 335 345 341 332 354 11 9 356 336 322 302 278 264 253 249 246 245 245 246 247 245 241 239 239 237 234 233 233 234 234 235 236
188 186 256 357 233 239 248 270 262 288 286 296 306 325 321 320 319 324 333 344 351 345 338 334 327 318 310 299 284 273 266 257 255 252 250 249 249 247 244 241 238 237 236 234 234 234 234 234 235
199 231 208 274 206 253 259 250 267 282 322 303 311 331 331 333 342 343 349 332 331 326 321 317 318 315 307 298 290 279 275 267 258 254 254 253 251 248 246 244 240 236 234 234 233 234 234 233 234
211 236 229 239 247 239 255 262 288 297 296 308 5 33 29 15 4 1 0 4 2 1 357 353 339 330 320 312 303 293 287 281 272 266 263 260 254 250 248 245 242 240 236 234 234 233 232 232 233